This demonstration page uses our WeatherBlox Daily Observations layout. Learn more.

Left ArrowRight Arrow

41.12389, -100.76542

Hourly Observations for February 3, 2017

Temp ( °F °C ) Dew Point ( °F °C ) Humidity (%) Winds ( mph kmh ) Pressure ( in mb ) Visibility ( mi km ) Precip ( " mm )
12:14 am 00:14 Cloudy with Light Snow 19 -7 16 -9 86 86 E 7 11 30.59 1036 2 3 0.00 0.00
12:28 am 00:28 Cloudy with Light Snow 19 -7.2 15 -9.4 84 84 E 6 9 30.59 1036 4 6 0.01 0.25
12:53 am 00:53 Cloudy with Light Snow 18 -7.8 14 -10 84 84 E 6 9 30.51 1033 4 6 0.01 0.25
1:39 am 01:39 Cloudy with Light Snow 18 -7.8 15 -9.4 88 88 ESE 6 9 30.59 1036 3 4 0.01 0.25
1:50 am 01:50 Cloudy with Light Snow 18 -8 16 -9 93 93 ESE 8 13 30.59 1036 2 3 0.00 0.00
1:53 am 01:53 Cloudy with Light Snow 18 -7.8 14 -10 84 84 ESE 8 13 30.50 1033 2 3 0.02 0.51
2:16 am 02:16 Cloudy with Light Snow 18 -7.8 15 -9.4 88 88 E 8 13 30.59 1036 3 4 0.00 0.03
2:22 am 02:22 Cloudy with Light Snow 18 -7.8 14 -10 84 84 E 6 9 30.59 1036 3 5 0.00 0.03
2:53 am 02:53 Cloudy with Light Snow 18 -7.8 14 -10 84 84 E 6 9 30.54 1034 6 10 0.01 0.25
3:15 am 03:15 Cloudy with Light Snow 18 -7.8 14 -10 84 84 ENE 5 7 30.62 1037 6 10 0.00 0.03
3:53 am 03:53 Cloudy with Light Snow 18 -7.8 14 -10 84 84 ENE 6 9 30.55 1034 5 8 0.00 0.03
4:27 am 04:27 Cloudy 18 -8 12 -11 79 79 NE 7 11 30.62 1037 10 16 0.00 0.00
4:53 am 04:53 Cloudy 17 -8.3 12 -11.1 80 80 NE 7 11 30.56 1035 10 16 0.00 0.03
5:38 am 05:38 Cloudy 18 -8 12 -11 79 79 ENE 6 9 30.65 1038 10 16 0.00 0.00
5:53 am 05:53 Cloudy 17 -8.3 13 -10.6 84 84 ENE 5 7 30.58 1035 10 16 0.00 0.00
6:53 am 06:53 Cloudy 17 -8.3 12 -11.1 80 80 ESE 3 6 30.59 1036 10 16 0.00 0.03
7:24 am 07:24 Cloudy with Light Snow 18 -8 12 -11 79 79 ESE 7 11 30.65 1038 9 14 0.00 0.00
7:34 am 07:34 Cloudy 18 -8 12 -11 79 79 SE 5 7 30.65 1038 9 14 0.00 0.00
7:53 am 07:53 Cloudy 17 -8.3 13 -10.6 84 84 ESE 5 7 30.60 1036 8 13 0.00 0.03
8:00 am 08:00 Cloudy 18 -8 12 -11 79 79 ESE 5 7 30.65 1038 9 14 0.00 0.00
8:19 am 08:19 Cloudy with Light Snow 17 -8.3 13 -10.6 84 84 ESE 5 7 30.65 1038 5 8 0.00 0.03
8:53 am 08:53 Cloudy with Light Snow 17 -8.3 13 -10.6 84 84 SE 6 9 30.60 1036 4 6 0.00 0.03
9:53 am 09:53 Cloudy with Light Snow 19 -7.2 14 -10 81 81 SSE 6 9 30.59 1036 4 6 0.00 0.03
10:42 am 10:42 Cloudy 21 -6 16 -9 80 80 S 9 15 30.65 1038 10 16 0.00 0.00
10:53 am 10:53 Cloudy 21 -6.1 15 -9.4 78 78 S 8 13 30.58 1036 8 13 0.00 0.03
11:27 am 11:27 Cloudy 21 -6 16 -9 80 80 S 13 20 30.65 1038 9 14 0.00 0.00
11:53 am 11:53 Cloudy 21 -6.1 16 -8.9 81 81 S 13 20 30.56 1035 10 16 0.00 0.00
12:53 pm 12:53 Cloudy 23 -5 17 -8.3 78 78 S 13 20 30.51 1033 10 16 0.00 0.00
1:05 pm 13:05 Cloudy 24 -4.4 18 -7.8 77 77 S 10 17 30.56 1035 10 16 0.00 0.00
1:33 pm 13:33 Mostly Cloudy 24 -4.4 17 -8.3 75 75 S 14 22 30.53 1034 10 16 0.00 0.00
1:53 pm 13:53 Cloudy 24 -4.4 18 -7.8 77 77 S 12 19 30.45 1031 10 16 0.00 0.00
2:53 pm 14:53 Cloudy 26 -3.3 18 -7.8 71 71 S 10 17 30.40 1030 10 16 0.00 0.00
3:39 pm 15:39 Mostly Sunny 27 -3 18 -8 69 69 S 13 20 30.42 1030 10 16 0.00 0.00
3:53 pm 15:53 Sunny 28 -2.2 19 -7.2 69 69 S 14 22 30.36 1028 10 16 0.00 0.00
4:53 pm 16:53 Sunny 29 -1.7 19 -7.2 66 66 SE 8 13 30.33 1027 10 16 0.00 0.00
5:53 pm 17:53 Sunny 27 -2.8 18 -7.8 69 69 SE 8 13 30.29 1026 10 16 0.00 0.00
6:53 pm 18:53 Clear 27 -2.8 16 -8.9 63 63 SSE 9 15 30.27 1025 10 16 0.00 0.00
7:53 pm 19:53 Clear 28 -2.2 16 -8.9 60 60 SSE 10 17 30.26 1025 10 16 0.00 0.00
8:53 pm 20:53 Clear 28 -2.2 15 -9.4 58 58 S 18 30 30.23 1024 10 16 0.00 0.00
9:53 pm 21:53 Clear 25 -3.9 14 -10 63 63 S 12 19 30.21 1023 10 16 0.00 0.00
10:53 pm 22:53 Clear 25 -3.9 13 -10.6 60 60 S 16 26 30.16 1022 10 16 0.00 0.00
11:53 pm 23:53 Clear 25 -3.9 13 -10.6 60 60 S 15 24 30.14 1021 10 16 0.00 0.00

Powered by AerisWeather